Weather History for KARB - April, 2013

Change the Weather History Date:

Monday, April 1, 2013

  Actual Average Record
Temperature  
Mean Temperature 33 °F -  
Max Temperature 39 °F 49 °F 73 °F (2003)
Min Temperature 26 °F 29 °F 25 °F (2011)
Degree Days  
Heating Degree Days 32    
Moisture  
Dew Point 15 °F    
Average Humidity 48    
Maximum Humidity 73    
Minimum Humidity 30    
Precipitation  
Precipitation 0.00 in - - ()
Sea Level Pressure  
Sea Level Pressure 29.95 in    
Wind  
Wind Speed 13 mph (NW)    
Max Wind Speed 20 mph    
Max Gust Speed 26 mph    
Visibility 10 miles    
Events Snow    
Averages and records for this station are not official NWS values.
T = Trace of Precipitation, MM = Missing Value Source: NWS Daily Summary

Daily Weather History Graph

Daily Weather History Graph

Search for Another Location

Airport or City:

Trip Planner

Search our weather history database for the weather conditions in past years. The results will help you decide how hot, cold, wet, or windy it might be!

Date:

Astronomy

Apr. 01, 2013 Rise Set
Actual Time 7:17 AM EDT 8:01 PM EDT
Civil Twilight 6:48 AM EDT 8:29 PM EDT
Nautical Twilight 6:15 AM EDT 9:02 PM EDT
Astronomical Twilight 5:40 AM EDT 9:37 PM EDT
Moon 1:12 AM EDT (4/1) 10:57 AM EDT (4/1)
Length of Visible Light 13h 40m
Length of Day
12h 43m
Waning Gibbous, 67% of the Moon is Illuminated
Apr 1
Waning Gibbous
Apr 3
Last Quarter
Apr 10
New
Apr 18
First Quarter
Apr 25
Full

Hourly Weather History & Observations

Time (EDT) Temp. Windchill Dew Point Humidity Pressure Visibility Wind Dir Wind Speed Gust Speed Precip Events Conditions
12:53 AM 39.0 °F 31.0 °F 27.0 °F 62% 29.72 in 10.0 mi WNW 13.8 mph - N/A   Clear
1:53 AM 37.0 °F 29.8 °F 26.1 °F 65% 29.73 in 10.0 mi WNW 10.4 mph - N/A   Clear
2:51 AM 35.6 °F 26.2 °F 26.6 °F 70% 29.75 in 10.0 mi NNW 15.0 mph 23.0 mph N/A   Mostly Cloudy
2:53 AM 34.0 °F 25.0 °F 26.1 °F 73% 29.76 in 10.0 mi NNW 12.7 mph 21.9 mph N/A   Mostly Cloudy
3:53 AM 34.0 °F 24.6 °F 23.0 °F 64% 29.79 in 10.0 mi NNW 13.8 mph 19.6 mph 0.00 in Snow Light Snow
4:53 AM 32.0 °F 23.6 °F 19.0 °F 59% 29.82 in 10.0 mi NW 10.4 mph 20.7 mph 0.00 in   Scattered Clouds
5:53 AM 30.0 °F 21.1 °F 12.9 °F 49% 29.86 in 10.0 mi NNW 10.4 mph 20.7 mph N/A   Clear
6:53 AM 28.9 °F 21.1 °F 14.0 °F 54% 29.89 in 10.0 mi NW 8.1 mph - N/A   Clear
7:53 AM 28.9 °F 21.1 °F 15.1 °F 56% 29.93 in 10.0 mi NW 8.1 mph 16.1 mph N/A   Clear
8:53 AM 30.9 °F 19.1 °F 12.0 °F 46% 29.95 in 10.0 mi NW 18.4 mph 21.9 mph N/A   Clear
9:53 AM 33.1 °F 23.4 °F 12.9 °F 43% 29.97 in 10.0 mi WNW 13.8 mph 19.6 mph N/A   Mostly Cloudy
10:53 AM 32.0 °F 22.5 °F 12.0 °F 44% 29.99 in 10.0 mi NW 12.7 mph 21.9 mph N/A   Mostly Cloudy
11:53 AM 34.0 °F 24.6 °F 10.9 °F 38% 30.00 in 10.0 mi NW 13.8 mph 20.7 mph N/A   Mostly Cloudy
12:53 PM 37.0 °F 27.4 °F 10.0 °F 33% 30.01 in 10.0 mi WNW 17.3 mph 25.3 mph N/A   Mostly Cloudy
1:53 PM 37.0 °F 27.0 °F 10.9 °F 34% 30.01 in 10.0 mi NW 18.4 mph 23.0 mph N/A   Mostly Cloudy
2:53 PM 39.0 °F 30.6 °F 10.0 °F 30% 30.01 in 10.0 mi NW 15.0 mph 26.5 mph N/A   Mostly Cloudy
3:53 PM 37.0 °F 28.1 °F 10.9 °F 34% 30.01 in 10.0 mi NW 15.0 mph 24.2 mph N/A   Mostly Cloudy
4:53 PM 37.0 °F 26.7 °F 10.0 °F 33% 30.02 in 10.0 mi West 19.6 mph 25.3 mph N/A   Mostly Cloudy
5:53 PM 36.0 °F 26.7 °F 12.0 °F 37% 30.04 in 10.0 mi NW 15.0 mph 23.0 mph N/A   Overcast
6:53 PM 33.1 °F 24.9 °F 12.0 °F 42% 30.06 in 10.0 mi NW 10.4 mph 24.2 mph N/A   Overcast
7:53 PM 30.9 °F 20.2 °F 10.0 °F 42% 30.08 in 10.0 mi WNW 15.0 mph 21.9 mph N/A   Overcast
8:53 PM 30.0 °F 19.1 °F 10.0 °F 43% 30.10 in 10.0 mi WNW 15.0 mph 21.9 mph N/A   Mostly Cloudy
9:53 PM 28.0 °F 19.3 °F 10.9 °F 49% 30.11 in 10.0 mi NW 9.2 mph - N/A   Partly Cloudy
10:53 PM 27.0 °F 17.3 °F 10.0 °F 49% 30.12 in 10.0 mi WNW 10.4 mph - N/A   Clear
11:53 PM 26.1 °F 17.6 °F 10.9 °F 53% 30.12 in 10.0 mi WNW 8.1 mph - N/A   Clear